Find Starlink 33627

NORAD ID: 63068 Int'l Des: 2025-035 Owner: SPXS Country: US Constellation: starlink operational
LEOCIRCULAR

当前视图

正在加载3D地球...

About Starlink 33627

Starlink 33627 (NORAD 63068) is a starlink constellation satellite (v2 mini) launched Feb 21, 2025 by SPXS of US. It operates in LEO, CIRCULAR orbit with a mass of 575.00 kg.

即将过境

Passes for default location (London). Set your location on the main map for personalized predictions.

高度历史

Loading altitude history...

两行轨道根数

1 63068U 25035S 26254.15927921 .00012954 00000-0 47924-3 0 9993
2 63068 43.0002 179.7475 0000921 273.1091 86.9655 15.27592598 88085
Epoch: Sep 11, 2026 • Age: 13 hours

当前状态

高度 482.2 km
远地点 / 近地点 N/A
速度 7.63 km/s
星下点 6.08°N, 53.63°W
发射日期 Feb 21, 2025
运行时间 1.5 years
类型 internet

技术详情

分类 Payload
质量 575.00 kg
干质量 530.00 kg
总质量 575.00 kg
长度 0.30 m
直径 4.10 m
跨度 29.00 m
形状 Box + pan
制造商 SPXS
平台类型 Starlink V2MO
阶段状态 In Orbit
所有者/国家 SPXS/US

Most Searched